Location: Marcé
(47.5801°N, 0.3280°W)
Time: 11:22:12
(UTC+01:00)

Explorer 7 - Pass Details

Date: 15 December 2021
Orbit: 483 x 674 km, 50.3° (Epoch: 19 January)

Event Time Altitude Azimuth Distance (km) Brightness Sun altitude
Exits shadow 06:59:28 32° 291° (WNW) 984 7.5 -16.5°
Maximum altitude 07:01:22 87° 14° (NNE) 566 6.8 -16.2°
Drops below altitude 10° 07:05:27 10° 109° (ESE) 1,788 10.8 -15.5°
Sets 07:07:36 0° 110° (ESE) 2,647 12.2 -15.2°
